Fairchild AFB, WA

8:04 PM PST on February 22, 2017 (GMT -0800)
Fairchild Air Force Base

Weather History for KSKA - September, 2013

Change the Weather History Date:

Friday, September 13, 2013

  Actual Average Record
Temperature  
Mean Temperature 72 °F -  
Max Temperature 89 °F 70 °F 89 °F (2013)
Min Temperature 55 °F 46 °F 38 °F (2016)
Cooling Degree Days 7    
Growing Degree Days 22 (Base 50)    
Moisture  
Dew Point 50 °F    
Average Humidity 48    
Maximum Humidity 82    
Minimum Humidity 22    
Precipitation  
Precipitation 0.00 in - - ()
Sea Level Pressure  
Sea Level Pressure 29.86 in    
Wind  
Wind Speed 3 mph (ENE)    
Max Wind Speed 7 mph    
Max Gust Speed -    
Visibility 10 miles    
Events      
Averages and records for this station are not official NWS values.
T = Trace of Precipitation, MM = Missing Value Source: NWS Daily Summary

Daily Weather History Graph

Daily Weather History Graph

Search for Another Location

Airport or City:

Trip Planner

Search our weather history database for the weather conditions in past years. The results will help you decide how hot, cold, wet, or windy it might be!

Date:

Astronomy

Sep. 13, 2013 Rise Set
Actual Time 6:25 AM PDT 7:06 PM PDT
Civil Twilight 5:54 AM PDT 7:37 PM PDT
Nautical Twilight 5:17 AM PDT 8:14 PM PDT
Astronomical Twilight 4:38 AM PDT 8:52 PM PDT
Moon 3:18 PM PDT (9/13) No Moon Set
Length of Visible Light 13h 42m
Length of Day
12h 40m
Waxing Gibbous, 62% of the Moon is Illuminated
Sep 13
Waxing Gibbous
Sep 19
Full
Sep 26
Last Quarter
Oct 4
New
Oct 11
First Quarter

Hourly Weather History & Observations

Time (PDT) Temp. Heat Index Dew Point Humidity Pressure Visibility Wind Dir Wind Speed Gust Speed Precip Events Conditions
12:56 AM 69.8 °F - 48.2 °F 46% 29.90 in 10.0 mi SW 3.5 mph - N/A   Clear
1:56 AM 66.2 °F - 50.0 °F 56% 29.89 in 10.0 mi NNW 2.3 mph - N/A   Clear
2:56 AM 59.0 °F - 48.2 °F 67% 29.89 in 10.0 mi Calm Calm - N/A   Clear
3:56 AM 62.6 °F - 50.0 °F 63% 29.89 in 10.0 mi ENE 1.2 mph - N/A   Clear
4:56 AM 60.8 °F - 50.0 °F 68% 29.89 in 10.0 mi NNE 4.6 mph - N/A   Clear
5:56 AM 57.2 °F - 50.0 °F 77% 29.89 in 10.0 mi NNE 4.6 mph - N/A   Clear
6:56 AM 55.4 °F - 50.0 °F 82% 29.89 in 10.0 mi ENE 4.6 mph - N/A   Clear
7:56 AM 62.6 °F - 51.8 °F 68% 29.90 in 10.0 mi East 5.8 mph - N/A   Clear
8:56 AM 68.0 °F - 53.6 °F 60% 29.90 in 10.0 mi East 5.8 mph - N/A   Light Drizzle
8:57 AM 68.0 °F - 53.6 °F 60% 29.90 in 10.0 mi East 5.8 mph - N/A   Light Drizzle
9:56 AM 73.4 °F - 53.6 °F 50% 29.90 in 10.0 mi Variable 2.3 mph - N/A   Clear
10:56 AM 77.0 °F - 53.6 °F 44% 29.90 in 10.0 mi SSE 2.3 mph - N/A   Clear
11:56 AM 80.6 °F 80.3 °F 53.6 °F 39% 29.88 in 10.0 mi Variable 2.3 mph - N/A   Clear
12:56 PM 84.2 °F - 51.8 °F 33% 29.87 in 10.0 mi Variable 2.3 mph - N/A   Clear
1:56 PM 87.8 °F 85.7 °F 53.6 °F 31% 29.85 in 10.0 mi NW 6.9 mph - N/A   Clear
2:56 PM 87.8 °F - 51.8 °F 29% 29.83 in 10.0 mi West 5.8 mph - N/A   Clear
3:56 PM 89.6 °F - 50.0 °F 26% 29.82 in 10.0 mi Variable 3.5 mph - N/A   Clear
4:56 PM 89.6 °F - 50.0 °F 26% 29.80 in 10.0 mi Variable 5.8 mph - N/A   Clear
5:56 PM 87.8 °F - 44.6 °F 22% 29.80 in 10.0 mi WNW 4.6 mph - N/A   Clear
6:56 PM 84.2 °F - 46.4 °F 27% 29.79 in 10.0 mi NE 2.3 mph - N/A   Clear
7:56 PM 78.8 °F - 44.6 °F 30% 29.80 in 10.0 mi SSE 3.5 mph - N/A   Clear
8:56 PM 75.2 °F - 50.0 °F 41% 29.81 in 10.0 mi Calm Calm - N/A   Clear
9:56 PM 71.6 °F - 48.2 °F 43% 29.82 in 10.0 mi SW 4.6 mph - N/A   Clear
10:56 PM 68.0 °F - 48.2 °F 49% 29.82 in 10.0 mi SSW 2.3 mph - N/A   Clear
11:56 PM 68.0 °F - 50.0 °F 52% 29.83 in 10.0 mi South 2.3 mph - N/A   Clear